Weather History for KMGW - January, 2014

Change the Weather History Date:

Thursday, January 30, 2014

  Actual Average Record
Temperature  
Mean Temperature 17 °F 32 °F  
Max Temperature 36 °F 40 °F 74 °F (2013)
Min Temperature -2 °F 24 °F -2 °F (2014)
Degree Days  
Heating Degree Days 48 33  
Month to date heating degree days 1134 1012  
Since 1 July heating degree days 3088 2996  
Cooling Degree Days 0 0  
Month to date cooling degree days 0 0  
Year to date cooling degree days 0 0  
Moisture  
Dew Point -2 °F    
Average Humidity 50    
Maximum Humidity 79    
Minimum Humidity 20    
Precipitation  
Precipitation 0.00 in 0.09 in - ()
Month to date precipitation 1.82 2.72  
Year to date precipitation 1.82 2.72  
Sea Level Pressure  
Sea Level Pressure 30.24 in    
Wind  
Wind Speed 2 mph (SSW)    
Max Wind Speed 10 mph    
Max Gust Speed 16 mph    
Visibility 10 miles    
Events      
T = Trace of Precipitation, MM = Missing Value Source: NWS Daily Summary

Daily Weather History Graph

Daily Weather History Graph

Search for Another Location

Airport or City:

Trip Planner

Search our weather history database for the weather conditions in past years. The results will help you decide how hot, cold, wet, or windy it might be!

Date:

Astronomy

Jan. 30, 2014 Rise Set
Actual Time 7:29 AM EST 5:37 PM EST
Civil Twilight 7:00 AM EST 6:05 PM EST
Nautical Twilight 6:28 AM EST 6:38 PM EST
Astronomical Twilight 5:56 AM EST 7:09 PM EST
Moon 6:54 AM EST (1/30) 5:46 PM EST (1/30)
Length of Visible Light 11h 05m
Length of Day
10h 08m
Waning Crescent, 0% of the Moon is Illuminated
Jan 30
Waning Crescent
Jan 30
New
Feb 6
First Quarter
Feb 14
Full
Feb 22
Last Quarter

Hourly Weather History & Observations

Time (EST) Temp. Windchill Dew Point Humidity Pressure Visibility Wind Dir Wind Speed Gust Speed Precip Events Conditions
12:53 AM 8.1 °F 1.4 °F -5.1 °F 55% 30.39 in 10.0 mi South 3.5 mph - N/A   Clear
1:53 AM 7.0 °F - -5.1 °F 58% 30.38 in 10.0 mi Calm Calm - N/A   Clear
2:53 AM -0.9 °F -8.9 °F -7.1 °F 75% 30.38 in 10.0 mi SSW 3.5 mph - N/A   Clear
3:53 AM 3.9 °F - -5.1 °F 66% 30.38 in 10.0 mi Calm Calm - N/A   Clear
4:53 AM 1.9 °F - -5.1 °F 72% 30.38 in 10.0 mi Calm Calm - N/A   Clear
5:53 AM 1.9 °F - -5.1 °F 72% 30.38 in 10.0 mi Calm Calm - N/A   Clear
6:53 AM 5.0 °F - -4.0 °F 66% 30.38 in 7.0 mi Calm Calm - N/A   Clear
7:53 AM 3.0 °F - -5.1 °F 69% 30.39 in 10.0 mi Calm Calm - N/A   Clear
8:53 AM 3.0 °F - -2.9 °F 76% 30.38 in 7.0 mi Calm Calm - N/A   Clear
9:53 AM 10.9 °F - -0.9 °F 59% 30.37 in 9.0 mi Calm Calm - N/A   Clear
10:53 AM 19.9 °F - -0.9 °F 40% 30.33 in 5.0 mi Calm Calm - N/A   Haze
11:53 AM 23.0 °F - -0.9 °F 35% 30.30 in 10.0 mi Calm Calm - N/A   Smoke
12:53 PM 27.0 °F 21.6 °F -2.9 °F 27% 30.27 in 10.0 mi Variable 4.6 mph - N/A   Clear
1:53 PM 28.0 °F 22.8 °F -6.0 °F 23% 30.20 in 10.0 mi South 4.6 mph - N/A   Clear
2:53 PM 30.9 °F 24.3 °F -4.0 °F 22% 30.17 in 10.0 mi SSW 6.9 mph - N/A   Clear
3:53 PM 33.1 °F 28.7 °F -4.0 °F 20% 30.13 in 10.0 mi Variable 4.6 mph - N/A   Clear
4:53 PM 34.0 °F 31.0 °F -0.0 °F 24% 30.11 in 10.0 mi West 3.5 mph - N/A   Clear
5:53 PM 32.0 °F - 1.0 °F 27% 30.10 in 10.0 mi Calm Calm - N/A   Clear
6:53 PM 30.0 °F 26.5 °F -2.0 °F 25% 30.09 in 10.0 mi SE 3.5 mph - N/A   Clear
7:53 PM 26.1 °F 19.4 °F 8.1 °F 47% 30.09 in 10.0 mi SSE 5.8 mph - N/A   Clear
8:53 PM 30.0 °F 26.5 °F 3.9 °F 33% 30.06 in 10.0 mi South 3.5 mph - N/A   Clear
9:53 PM 32.0 °F 28.7 °F 1.0 °F 27% 30.05 in 10.0 mi South 3.5 mph - N/A   Clear
10:53 PM 36.0 °F 31.1 °F -2.0 °F 20% 30.02 in 10.0 mi SSW 5.8 mph 16.1 mph N/A   Clear
11:53 PM 36.0 °F 31.1 °F -0.0 °F 22% 30.02 in 10.0 mi SSW 5.8 mph - N/A   Clear